Regional Weather Roundup
Issued by NWS

Home | Current Version | Previous Version | Graphics & Text | Print | Product List | Glossary On
Versions: 1 2 3 4 5 6 7 8 9 10 11 12 13 14 15 16 17 18 19 20 21 22 23 24 25 26 27 28 29 30 31 32 33 34 35 36 37 38 39 40 41 42 43 44 45 46 47 48 49 50
000
ASUS43 KLOT 251412
RWRIL

ILLINOIS REGIONAL WEATHER ROUNDUP
NATIONAL WEATHER SERVICE CHICAGO/ROMEOVILLE IL
900 AM CDT SAT APR 25 2015

NOTE: "FAIR" INDICATES FEW OR NO CLOUDS BELOW 12,000 FEET WITH NO
SIGNIFICANT WEATHER AND/OR OBSTRUCTIONS TO VISIBILITY.

* THESE STATIONS ARE NOT UNDER NWS QUALITY CONTROL. THEY ALSO MAY NOT
  REPORT WEATHER SUCH AS PRECIPITATION OR FOG.

ILZ001-002-007-009-015-016-024-251500-
NORTHWEST ILLINOIS

CITY           SKY/WX    TMP DP  RH WIND       PRES   REMARKS
MOLINE         LGT RAIN  44  41  89 E21       29.65F FOG
STERLING*      CLOUDY    43  39  87 E24G30    29.69F
SAVANNA*       CLOUDY    45  38  78 E16G22    29.72S
$$

ILZ003-004-008-010-011-017-018-251500-
NORTH CENTRAL ILLINOIS

CITY           SKY/WX    TMP DP  RH WIND       PRES   REMARKS
ROCKFORD       CLOUDY    45  37  73 E15       29.78F
FREEPORT*      CLOUDY    43  37  80 E13       29.77F
ROCHELLE*      LGT RAIN  42  40  93 E14       29.75F
DE KALB*       LGT RAIN  41  38  90 E14       29.76S
PERU*          CLOUDY    44  43  95 E15       29.72R
$$

ILZ005-006-012>014-019>023-251500-
NORTHEAST ILLINOIS

CITY           SKY/WX    TMP DP  RH WIND       PRES   REMARKS
CHICAGO-OHARE  LGT RAIN  43  39  86 E14       29.78F
CHICAGO-MIDWAY LGT RAIN  45  40  82 E13       29.79F
AURORA         LGT RAIN  45  40  82 E16       29.74F
LANSING*       LGT RAIN  42  38  86 E14G21    29.78F
JOLIET*        LGT RAIN  45  43  93 E13       29.74F
WAUKEGAN       CLOUDY    41  38  89 NE10      29.81F
DUPAGE AIRPORT LGT RAIN  43  40  89 E13       29.75F FOG
KANKAKEE*      RAIN      43  42  96 NE20      29.73F
WHEELING       CLOUDY    43  37  79 E8        29.81F
MORRIS*        LGT RAIN  44  42  90 E16G30    29.70F
ROMEOVILLE*    LGT RAIN  43  40  91 E14       29.75F
NORTHERLY ISL    N/A     44  39  82 E12         N/A
$$

LMZ740>746-251500-
SOUTHERN LAKE MICHIGAN

STATION/POSITION SKY/WX   TEMP    WIND        PRES    VSBY  WAVE
                          AIR SEA DIR/SP/G                  HT/PER
                          (F)     (DEG/KT/KT) (MB)    (MI)  (FT/S)
HARRISON CRIB              41      90/ 17/ 19   N/A
BURNHAM HARBOR             44      90/ 12/ 13   N/A
CALUMET HARBOR             45     100/ 13/ 16   N/A
BURNS HARBOR               43     110/ 14     1009.1F
MICHIGAN CITY              44     100/ 16/ 24   N/A
MICHIGAN CITY 6N           44 44  130/ 14/ 19   N/A           3/ 4
$$

ILZ025>027-034>036-040-047-049-050-058-095>099-251500-
WEST-CENTRAL ILLINOIS

CITY           SKY/WX    TMP DP  RH WIND       PRES   REMARKS
QUINCY         LGT RAIN  50  49  96 E12       29.55F FOG
GALESBURG*     LGT RAIN  46  44  93 E14G21    29.62R
MACOMB*        RAIN      47  47  98 E6        29.67R
JACKSONVILLE*  TSTM      52  50  93 E9        29.58S
PITTSFIELD*    CLOUDY    53  51  94 E7        29.56F
$$

ILZ028>032-037-038-041>044-048-051>054-059>061-251500-
CENTRAL ILLINOIS

CITY           SKY/WX    TMP DP  RH WIND       PRES   REMARKS
PONTIAC        CLOUDY    46  45  97 E21       29.69F
BLOOMINGTON    LGT RAIN  48  48 100 E18       29.64F FOG
DECATUR        CLOUDY    51  48  89 E15       29.61F
PEORIA         RAIN      48  45  89 E23       29.60F FOG
LACON*         CLOUDY    44  42  93 NE12      29.69S
LINCOLN*       LGT RAIN  51  48  89 E12       29.59S
SPRINGFIELD    LGT RAIN  52  49  89 E7        29.60R FOG
TAYLORVILLE    CLOUDY    50  46  87 SE9       29.59R
$$

ILZ033-039-045-046-055>057-062-063-251500-
EAST-CENTRAL ILLINOIS

CITY           SKY/WX    TMP DP  RH WIND       PRES   REMARKS
CHAMPAIGN      LGT RAIN  49  48  97 E16G30    29.61F FOG
DANVILLE*      LGT RAIN  49  47  91 E9G18     29.64F
RANTOUL*       CLOUDY    51  49  90 E14       29.65S
MATTOON        CLOUDY    50  48  93 SE15      29.60F FOG
PARIS*         TSTM      49  48  95 E9        29.65F
$$

ILZ079-100>102-251500-
SOUTHWEST ILLINOIS

CITY           SKY/WX    TMP DP  RH WIND       PRES   REMARKS
ALTON          CLOUDY    55  55 100 S10       29.56S FOG
BELLEVILLE     CLOUDY    57  57 100 VRB5      29.55F
CAHOKIA*       CLOUDY    57  56  96 S7        29.56R FOG
SPARTA*        CLOUDY    55  55  99 SE7       29.58S FOG
$$

ILZ064>066-069>071-074>076-080>082-084>086-088>090-092>094-251500-
SOUTH-CENTRAL ILLINOIS

CITY           SKY/WX    TMP DP  RH WIND       PRES   REMARKS
CARBONDALE     CLOUDY    59  56  89 S10       29.59F
CAIRO*         CLOUDY    60  59  96 S8        29.62F FOG
EFFINGHAM*     CLOUDY    51  49  91 E12       29.62F FOG
MARION         CLOUDY    59  57  94 S9        29.61F
MT. VERNON     CLOUDY    55  52  88 SE7       29.60F
CENTRALIA*     CLOUDY    55  51  87 SE10      29.58F FOG
SALEM*         CLOUDY    56  53  90 SE9       29.59F FOG
METROPOLIS*    CLOUDY    61  60  98 S6        29.62F
$$

ILZ067-068-072-073-078-083-087-091-251500-
SOUTHEAST ILLINOIS

CITY           SKY/WX    TMP DP  RH WIND       PRES   REMARKS
LAWRENCEVILLE  RAIN      51  50  96 SE8       29.66S FOG
FLORA*         RAIN      52  51  97 SE10      29.61F
FAIRFIELD*     CLOUDY    55  53  95 SE7       29.60F FOG
HARRISBURG*    CLOUDY    58  56  95 S10       29.63F
ROBINSON*      RAIN      50  49  96 SE9       29.66S
CARMI*         CLOUDY    56  51  82 SE10      29.62F HAZE
$$

ABBREVIATIONS USED IN REMARKS
   TC - TEMPERATURE IN CELSIUS
  WCI - WIND CHILL INDEX
   HX - HEAT INDEX
  VSB - VISIBILITY
$$




USA.gov is the U.S. government's official web portal to all federal, state and local government web resources and services.